FW2972 Weather Reports


Display with metric or nautical units.
time (UTC)temp
F
wind
direction
speed
MPH
gust
MPH
rain 1hr
in
rain 24hr
in
rain mn
in
humidity
%
barometer
mb
20260906214244 89 129 1.0 3.0 0.00 0.00 0.00 78 1013.4
20260906213738 90 233 2.0 4.0 0.00 0.00 0.00 76 1013.2
20260906213237 90 144 0.0 3.0 0.00 0.00 0.00 78 1013.3
20260906212734 89 297 0.0 3.0 0.00 0.00 0.00 80 1013.4
20260906212231 89 0 0.0 3.0 0.00 0.00 0.00 79 1013.3
20260906211730 89 98 1.0 5.0 0.00 0.00 0.00 78 1013.6
20260906211225 89 203 2.0 3.0 0.00 0.00 0.00 78 1013.7
20260906210721 90 266 2.0 7.0 0.00 0.00 0.00 77 1013.7
20260906210220 91 242 1.0 8.0 0.00 0.00 0.00 75 1013.4
20260906205715 91 213 2.0 5.0 0.00 0.00 0.00 75 1013.5
20260906205212 93 247 2.0 4.0 0.00 0.00 0.00 68 1013.3
20260906204707 91 235 2.0 5.0 0.00 0.00 0.00 74 1013.3
20260906204206 91 228 2.0 4.0 0.00 0.00 0.00 71 1013.5
20260906203706 92 229 3.0 4.0 0.00 0.00 0.00 69 1013.6
20260906203201 92 268 1.0 3.0 0.00 0.00 0.00 68 1013.7
20260906202658 94 152 2.0 5.0 0.00 0.00 0.00 68 1013.8
20260906202157 95 152 3.0 6.0 0.00 0.00 0.00 67 1013.7
20260906201653 94 118 2.0 5.0 0.00 0.00 0.00 70 1013.6
20260906201151 94 315 1.0 4.0 0.00 0.00 0.00 70 1013.7
20260906200648 94 178 2.0 3.0 0.00 0.00 0.00 68 1013.8
20260906200144 92 113 1.0 5.0 0.00 0.00 0.00 71 1013.9
20260906195639 92 279 2.0 3.0 0.00 0.00 0.00 69 1013.9
20260906195135 92 306 0.0 3.0 0.00 0.00 0.00 69 1014.1
20260906194631 91 225 0.0 5.0 0.00 0.00 0.00 69 1014.1
20260906194126 93 6 0.0 3.0 0.00 0.00 0.00 68 1014.3
20260906193626 93 293 2.0 4.0 0.00 0.00 0.00 71 1014.3
20260906193121 93 307 0.0 5.0 0.00 0.00 0.00 68 1014.4
20260906192617 93 307 5.0 6.0 0.00 0.00 0.00 67 1014.4
20260906192116 93 255 0.0 8.0 0.00 0.00 0.00 70 1014.5
20260906191611 95 259 1.0 3.0 0.00 0.00 0.00 68 1014.6
20260906191110 94 293 1.0 5.0 0.00 0.00 0.00 69 1014.4
20260906190605 93 317 1.0 3.0 0.00 0.00 0.00 69 1014.6
20260906190059 91 200 1.0 6.0 0.00 0.00 0.00 74 1014.5
20260906185558 91 222 1.0 3.0 0.00 0.00 0.00 73 1014.5
20260906185057 91 297 1.0 4.0 0.00 0.00 0.00 71 1014.6
20260906184552 92 102 0.0 4.0 0.00 0.00 0.00 72 1014.6
20260906184048 90 288 2.0 4.0 0.00 0.00 0.00 71 1014.5
20260906183544 89 224 1.0 4.0 0.00 0.00 0.00 73 1014.7
20260906183040 89 174 0.0 3.0 0.00 0.00 0.00 77 1014.7
20260906182534 89 224 1.0 6.0 0.00 0.00 0.00 74 1014.8
20260906182031 89 233 2.0 4.0 0.00 0.00 0.00 77 1014.8
20260906181526 87 245 1.0 8.0 0.00 0.00 0.00 79 1014.9
20260906181022 88 282 2.0 3.0 0.00 0.00 0.00 77 1015.2
20260906180522 86 202 1.0 7.0 0.00 0.00 0.00 83 1015.2
20260906180015 86 116 3.0 4.0 0.00 0.00 0.00 83 1015.2
20260906175514 85 291 3.0 6.0 0.00 0.00 0.00 84 1015.1
20260906175009 85 184 2.0 4.0 0.00 0.00 0.00 86 1015.3
20260906174507 84 253 2.0 6.0 0.00 0.00 0.00 87 1015.1
20260906174003 83 185 3.0 10.0 0.00 0.00 0.00 87 1015.3
20260906173458 84 341 0.0 3.0 0.00 0.00 0.00 83 1015.2
20260906172957 85 207 2.0 4.0 0.00 0.00 0.00 80 1015.2
20260906172453 85 218 1.0 3.0 0.00 0.00 0.00 79 1015.1
20260906171948 85 109 1.0 5.0 0.00 0.00 0.00 80 1015.2
20260906171443 85 170 0.0 5.0 0.00 0.00 0.00 80 1015.1
20260906170938 85 262 3.0 4.0 0.00 0.00 0.00 78 1015.7
20260906170435 86 254 1.0 4.0 0.00 0.00 0.00 80 1015.8
20260906165932 86 243 1.0 3.0 0.00 0.00 0.00 80 1015.6
20260906165430 86 244 2.0 5.0 0.00 0.00 0.00 82 1015.5
20260906164926 84 237 1.0 7.0 0.00 0.00 0.00 85 1015.5
20260906164425 86 251 3.0 3.0 0.00 0.00 0.00 83 1015.7
20260906163921 86 288 0.0 3.0 0.00 0.00 0.00 83 1015.6
20260906163417 86 246 0.0 4.0 0.00 0.00 0.00 84 1015.4
20260906162915 87 263 3.0 5.0 0.00 0.00 0.00 83 1015.5
20260906162413 87 223 2.0 3.0 0.00 0.00 0.00 83 1015.6
20260906161909 87 247 1.0 2.0 0.00 0.00 0.00 83 1015.7
20260906161408 87 240 0.0 3.0 0.00 0.00 0.00 82 1015.5
20260906160907 87 144 0.0 3.0 0.00 0.00 0.00 82 1015.6
20260906160407 86 156 1.0 6.0 0.00 0.00 0.00 82 1015.9
20260906155905 87 110 0.0 2.0 0.00 0.00 0.00 83 1015.5
20260906155359 86 202 0.0 2.0 0.00 0.00 0.00 81 1015.4
20260906154855 86 314 0.0 1.0 0.00 0.00 0.00 81 1015.4
20260906154349 86 223 0.0 2.0 0.00 0.00 0.00 82 1015.4
20260906153848 86 223 0.0 3.0 0.00 0.00 0.00 81 1015.2
20260906153347 87 76 0.0 3.0 0.00 0.00 0.00 81 1015.3
20260906152842 87 102 0.0 2.0 0.00 0.00 0.00 82 1015.3
20260906152337 88 197 1.0 3.0 0.00 0.00 0.00 82 1015.4
20260906151836 91 250 2.0 5.0 0.00 0.00 0.00 79 1015.2
20260906151332 90 28 0.0 2.0 0.00 0.00 0.00 82 1015.2
20260906150828 87 0 0.0 1.0 0.00 0.00 0.00 87 1015.0
20260906150323 87 142 2.0 2.0 0.00 0.00 0.00 87 1015.2
20260906145822 87 257 0.0 3.0 0.00 0.00 0.00 87 1015.2
20260906145320 87 230 0.0 2.0 0.00 0.00 0.00 86 1015.2
20260906144816 88 255 0.0 2.0 0.00 0.00 0.00 86 1015.0
20260906144311 88 242 0.0 2.0 0.00 0.00 0.00 85 1015.0
20260906143810 88 343 0.0 1.0 0.00 0.00 0.00 84 1015.1
20260906143307 88 304 0.0 3.0 0.00 0.00 0.00 83 1015.2
20260906142802 89 267 3.0 4.0 0.00 0.00 0.00 83 1015.1
20260906142257 89 288 2.0 3.0 0.00 0.00 0.00 83 1015.2
20260906141756 91 246 0.0 0.0 0.00 0.00 0.00 82 1015.1
20260906141251 89 196 0.0 3.0 0.00 0.00 0.00 84 1015.3
20260906140750 90 269 0.0 1.0 0.00 0.00 0.00 83 1015.1
20260906140245 88 309 0.0 1.0 0.00 0.00 0.00 85 1015.1
20260906135742 88 230 0.0 3.0 0.00 0.00 0.00 84 1014.9
20260906135238 87 241 1.0 2.0 0.00 0.00 0.00 86 1015.2
20260906134734 87 226 2.0 2.0 0.00 0.00 0.00 85 1015.0
20260906134229 88 217 0.0 1.0 0.00 0.00 0.00 85 1015.1
20260906133724 87 135 0.0 2.0 0.00 0.00 0.00 87 1014.9
20260906133220 87 92 0.0 3.0 0.00 0.00 0.00 87 1014.9
20260906132715 87 113 0.0 3.0 0.00 0.00 0.00 88 1015.0
20260906132210 85 224 0.0 1.0 0.00 0.00 0.00 91 1014.9
20260906131706 85 242 0.0 1.0 0.00 0.00 0.00 91 1014.8
20260906131201 85 212 0.0 1.0 0.00 0.00 0.00 91 1014.4
20260906130656 84 217 0.0 1.0 0.00 0.00 0.00 92 1014.6
20260906130151 84 113 0.0 0.0 0.00 0.00 0.00 94 1014.4
20260906125649 82 113 0.0 1.0 0.00 0.00 0.00 98 1014.6
20260906125148 81 134 0.0 2.0 0.00 0.00 0.00 99 1014.4
20260906124643 80 233 0.0 0.0 0.00 0.00 0.00 99 1014.3
20260906124139 78 233 0.0 1.0 0.00 0.00 0.00 99 1014.2
20260906123637 78 297 0.0 0.0 0.00 0.00 0.00 99 1014.2
20260906123133 78 297 0.0 1.0 0.00 0.00 0.00 99 1014.0
20260906122632 78 220 0.0 1.0 0.00 0.00 0.00 99 1014.3
20260906122128 78 269 0.0 1.0 0.00 0.00 0.00 99 1014.2
20260906121624 77 184 0.0 1.0 0.00 0.00 0.00 99 1014.0
20260906121120 77 129 0.0 0.0 0.00 0.00 0.00 99 1014.0
20260906120615 77 129 0.0 0.0 0.00 0.00 0.00 99 1013.8
20260906120113 77 176 0.0 0.0 0.00 0.00 0.00 99 1013.9
20260906115613 77 217 0.0 0.0 0.00 0.00 0.00 99 1013.9
20260906115108 77 199 0.0 2.0 0.00 0.00 0.00 99 1013.8
20260906114602 77 180 0.0 1.0 0.00 0.00 0.00 99 1013.6
20260906114057 77 180 0.0 0.0 0.00 0.00 0.00 99 1013.8
20260906113556 77 190 0.0 2.0 0.00 0.00 0.00 99 1013.7
20260906113052 77 89 0.0 1.0 0.00 0.00 0.00 99 1013.6
20260906112546 77 230 0.0 1.0 0.00 0.00 0.00 99 1013.5
20260906112043 78 343 0.0 0.0 0.00 0.00 0.00 99 1013.6
20260906111542 78 89 0.0 0.0 0.00 0.00 0.00 99 1013.5
20260906111037 78 89 0.0 0.0 0.00 0.00 0.00 99 1013.6
20260906110537 78 75 0.0 1.0 0.00 0.00 0.00 99 1013.5
20260906110036 78 157 0.0 1.0 0.00 0.00 0.00 99 1013.5
20260906105532 78 212 0.0 1.0 0.00 0.00 0.00 99 1013.7
20260906105028 78 217 0.0 0.0 0.00 0.00 0.00 99 1013.4
20260906104526 78 230 0.0 1.0 0.00 0.00 0.00 99 1013.3
20260906104021 78 196 0.0 2.0 0.00 0.00 0.00 99 1013.3
20260906103519 78 199 1.0 1.0 0.00 0.00 0.00 99 1013.4
20260906103015 78 141 0.0 1.0 0.00 0.00 0.00 99 1013.2
20260906102514 78 151 0.0 2.0 0.00 0.00 0.00 99 1013.4
20260906102009 78 217 0.0 0.0 0.00 0.00 0.00 99 1013.1
20260906101504 78 190 0.0 1.0 0.00 0.00 0.00 99 1013.5
20260906100959 78 230 0.0 0.0 0.00 0.00 0.00 99 1013.2
20260906100454 78 297 0.0 1.0 0.00 0.00 0.00 99 1013.1
20260906095948 78 154 0.0 0.0 0.00 0.00 0.00 99 1013.1
20260906095443 78 154 0.0 1.0 0.00 0.00 0.00 99 1013.4
20260906094938 78 154 0.0 0.0 0.00 0.00 0.00 99 1013.0
20260906094432 79 150 0.0 1.0 0.00 0.00 0.00 99 1013.3
20260906093928 78 199 0.0 0.0 0.00 0.00 0.00 99 1013.3
20260906093424 79 157 0.0 2.0 0.00 0.00 0.00 99 1013.1
20260906092919 79 229 0.0 2.0 0.00 0.00 0.00 99 1013.1
20260906092418 79 214 0.0 1.0 0.00 0.00 0.00 99 1013.0
20260906091914 79 157 0.0 0.0 0.00 0.00 0.00 99 1013.1
20260906091410 79 315 0.0 1.0 0.00 0.00 0.00 99 1013.1
20260906090906 79 142 0.0 1.0 0.00 0.00 0.00 99 1013.0
20260906090406 79 164 0.0 1.0 0.00 0.00 0.00 99 1013.2
20260906085901 79 154 0.0 1.0 0.00 0.00 0.00 99 1013.0
20260906085400 79 195 0.0 0.0 0.00 0.00 0.00 99 1013.2
20260906084900 79 195 0.0 0.0 0.00 0.00 0.00 99 1012.8
20260906084354 79 195 0.0 1.0 0.00 0.00 0.00 99 1013.1
20260906083848 79 154 0.0 0.0 0.00 0.00 0.00 99 1012.9
20260906083344 79 154 0.0 0.0 0.00 0.00 0.00 99 1012.8
20260906082843 79 154 0.0 0.0 0.00 0.00 0.00 99 1013.0
20260906082338 79 154 0.0 0.0 0.00 0.00 0.00 99 1013.0
20260906081835 79 154 0.0 0.0 0.00 0.00 0.00 99 1013.0
20260906081330 79 164 0.0 1.0 0.00 0.00 0.00 99 1013.2
20260906080826 79 154 0.0 0.0 0.00 0.00 0.00 99 1013.2
20260906080322 79 154 0.0 0.0 0.00 0.00 0.00 99 1013.1
20260906075821 79 217 0.0 0.0 0.00 0.00 0.00 99 1013.3
20260906075316 79 217 0.0 0.0 0.00 0.00 0.00 99 1013.1
20260906074811 79 217 0.0 0.0 0.00 0.00 0.00 99 1013.1
20260906074311 79 212 0.0 0.0 0.00 0.00 0.00 99 1013.2
20260906073810 80 212 0.0 0.0 0.00 0.00 0.00 99 1012.9
20260906073305 80 225 0.0 1.0 0.00 0.00 0.00 99 1013.2
20260906072801 80 240 0.0 0.0 0.00 0.00 0.00 99 1013.4
20260906072257 80 240 0.0 0.0 0.00 0.00 0.00 99 1013.1
20260906071752 80 240 0.0 0.0 0.00 0.00 0.00 99 1013.2
20260906071252 80 240 0.0 0.0 0.00 0.00 0.00 99 1013.0
20260906070749 80 240 0.0 0.0 0.00 0.00 0.00 99 1013.3
20260906070244 80 240 0.0 0.0 0.00 0.00 0.00 98 1013.4
20260906065744 80 238 0.0 1.0 0.00 0.00 0.00 98 1013.4
20260906065239 80 217 0.0 0.0 0.00 0.00 0.00 98 1013.4
20260906064735 80 217 0.0 0.0 0.00 0.00 0.00 98 1013.4
20260906064230 80 205 0.0 0.0 0.00 0.00 0.00 98 1013.2
20260906063725 80 205 0.0 0.0 0.00 0.00 0.00 98 1013.4
20260906063221 80 205 0.0 0.0 0.00 0.00 0.00 98 1013.4
20260906062716 80 217 0.0 1.0 0.00 0.00 0.00 98 1013.3
20260906062215 80 205 0.0 0.0 0.00 0.00 0.00 98 1013.5
20260906061711 80 205 0.0 0.0 0.00 0.00 0.00 98 1013.3
20260906061207 80 205 0.0 0.0 0.00 0.00 0.00 97 1013.4
20260906060703 80 205 0.0 0.0 0.00 0.00 0.00 97 1013.3
20260906060200 80 230 0.0 0.0 0.00 0.00 0.00 97 1013.3
20260906055655 80 230 0.0 1.0 0.00 0.00 0.00 97 1013.4
20260906055150 80 246 0.0 0.0 0.00 0.00 0.00 97 1013.5
20260906054646 80 246 0.0 0.0 0.00 0.00 0.00 97 1013.3
20260906054140 80 269 0.0 2.0 0.00 0.00 0.00 97 1013.1
20260906053638 80 212 0.0 1.0 0.00 0.00 0.00 98 1013.2
20260906053138 80 230 0.0 1.0 0.00 0.00 0.00 99 1013.5
20260906052633 80 232 0.0 1.0 0.00 0.00 0.00 99 1013.3
20260906052130 80 217 0.0 0.0 0.00 0.00 0.00 99 1013.5
20260906051626 80 217 0.0 0.0 0.00 0.00 0.00 99 1013.3
20260906051126 80 205 0.0 1.0 0.00 0.00 0.00 99 1013.3
20260906050621 80 205 0.0 1.0 0.00 0.00 0.00 99 1013.5
20260906050116 80 230 0.0 2.0 0.00 0.49 0.49 99 1013.3
20260906045614 80 204 0.0 1.0 0.00 0.49 0.49 99 1013.5
20260906045110 80 129 0.0 1.0 0.00 0.49 0.49 99 1013.3
20260906044606 80 205 0.0 0.0 0.00 0.49 0.49 99 1013.3
20260906044101 80 218 1.0 2.0 0.00 0.49 0.49 99 1013.2
20260906043557 81 227 0.0 2.0 0.00 0.49 0.49 99 1013.2
20260906043052 81 205 0.0 1.0 0.00 0.49 0.49 99 1013.6
20260906042551 81 212 0.0 1.0 0.00 0.49 0.49 99 1013.6
20260906042046 81 230 0.0 1.0 0.00 0.49 0.49 99 1013.7
20260906041543 81 205 0.0 0.0 0.00 0.49 0.49 98 1013.5
20260906041037 81 205 0.0 2.0 0.00 0.49 0.49 98 1013.5
20260906040532 81 207 0.0 1.0 0.00 0.49 0.49 98 1013.5
20260906040028 81 134 0.0 2.0 0.00 0.49 0.49 98 1013.4
20260906035522 81 144 1.0 2.0 0.00 0.49 0.49 98 1013.5
20260906035019 81 182 0.0 2.0 0.00 0.49 0.49 98 1013.6
20260906034518 81 113 0.0 1.0 0.00 0.49 0.49 98 1013.4
20260906034014 81 135 0.0 0.0 0.00 0.49 0.49 98 1013.5
20260906033508 81 129 0.0 2.0 0.00 0.49 0.49 98 1013.5
20260906033004 81 149 0.0 1.0 0.00 0.49 0.49 98 1013.8
20260906032455 81 147 0.0 2.0 0.00 0.49 0.49 98 1013.7
20260906031954 81 166 0.0 2.0 0.00 0.49 0.49 98 1013.5
20260906031450 81 141 0.0 4.0 0.00 0.49 0.49 98 1013.6
20260906030945 82 184 0.0 3.0 0.00 0.49 0.49 98 1013.6
20260906030440 82 174 2.0 3.0 0.00 0.49 0.49 98 1013.6
20260906025940 82 119 2.0 3.0 0.00 0.49 0.49 98 1013.7
20260906025434 82 139 0.0 3.0 0.00 0.49 0.49 98 1013.3
20260906024933 82 121 0.0 3.0 0.00 0.49 0.49 98 1013.4
20260906024432 82 212 0.0 1.0 0.00 0.49 0.49 98 1013.5
20260906023933 82 162 1.0 2.0 0.00 0.49 0.49 98 1013.4
20260906023429 82 121 2.0 3.0 0.00 0.49 0.49 98 1013.1
20260906022924 82 222 1.0 2.0 0.00 0.49 0.49 98 1013.2
20260906022419 82 153 1.0 4.0 0.00 0.49 0.49 98 1013.3
20260906021915 82 135 0.0 1.0 0.00 0.49 0.49 98 1013.1
20260906021414 82 194 0.0 1.0 0.00 0.49 0.49 97 1012.8
20260906020908 82 135 0.0 1.0 0.00 0.49 0.49 97 1013.0
20260906020403 82 224 0.0 1.0 0.00 0.49 0.49 97 1012.8
20260906015857 82 154 0.0 1.0 0.00 0.49 0.49 97 1013.0
20260906015357 82 157 0.0 0.0 0.00 0.49 0.49 96 1012.9
20260906014857 82 127 0.0 2.0 0.00 0.49 0.49 96 1012.7
20260906014356 82 135 0.0 2.0 0.00 0.49 0.49 96 1012.7
20260906013853 82 249 0.0 2.0 0.00 0.49 0.49 95 1012.6
20260906013348 82 283 0.0 2.0 0.00 0.49 0.49 95 1012.6
20260906012844 82 75 0.0 1.0 0.00 0.49 0.49 95 1012.4
20260906012339 83 185 0.0 3.0 0.00 0.49 0.49 94 1012.3
20260906011838 83 208 0.0 3.0 0.00 0.49 0.49 93 1012.4
20260906011333 83 142 2.0 4.0 0.00 0.49 0.49 92 1012.5
20260906010829 84 147 0.0 3.0 0.00 0.49 0.49 91 1012.5
20260906010325 84 230 0.0 2.0 0.00 0.49 0.49 90 1012.4
20260906005820 84 161 1.0 5.0 0.00 0.49 0.49 90 1012.5
20260906005319 84 131 3.0 4.0 0.00 0.49 0.49 90 1012.5
20260906004818 84 193 1.0 3.0 0.00 0.49 0.49 90 1012.3
20260906004318 84 162 3.0 4.0 0.00 0.49 0.49 89 1012.6
20260906003813 84 154 2.0 3.0 0.00 0.49 0.49 89 1012.4
20260906003309 84 116 2.0 5.0 0.00 0.49 0.49 89 1012.5
20260906002804 84 149 3.0 4.0 0.00 0.49 0.49 89 1012.5
20260906002306 85 151 1.0 4.0 0.00 0.49 0.49 89 1012.6
20260906001800 85 187 0.0 4.0 0.00 0.49 0.49 89 1012.5
20260906001254 85 143 3.0 4.0 0.00 0.49 0.49 89 1012.7
20260906000749 85 128 1.0 6.0 0.00 0.49 0.49 88 1012.9
20260906000244 85 161 2.0 6.0 0.00 0.49 0.49 89 1013.0
20260905235739 85 173 0.0 3.0 0.00 0.49 0.49 88 1013.1
20260905235238 86 172 2.0 2.0 0.00 0.49 0.49 88 1013.1
20260905234734 85 145 1.0 4.0 0.00 0.49 0.49 88 1013.0
20260905234229 86 224 0.0 6.0 0.00 0.49 0.49 87 1013.1
20260905233725 86 165 1.0 2.0 0.00 0.49 0.49 87 1012.9
20260905233224 86 146 1.0 4.0 0.00 0.49 0.49 87 1013.0
20260905232719 86 172 1.0 3.0 0.00 0.49 0.49 87 1012.9
20260905232214 86 153 2.0 5.0 0.00 0.49 0.49 86 1012.9
20260905231710 86 176 0.0 6.0 0.00 0.49 0.49 86 1012.6
20260905231206 86 134 2.0 5.0 0.00 0.49 0.49 85 1012.6
20260905230702 86 200 0.0 7.0 0.00 0.49 0.49 85 1012.7
20260905230159 86 122 2.0 7.0 0.00 0.49 0.49 85 1012.7
20260905225659 86 97 2.0 6.0 0.00 0.49 0.49 85 1012.9
20260905225154 86 80 2.0 6.0 0.00 0.49 0.49 85 1012.7
20260905224653 86 138 1.0 5.0 0.00 0.49 0.49 85 1012.6
20260905224148 87 151 2.0 7.0 0.00 0.49 0.49 84 1012.8
20260905223645 87 109 2.0 5.0 0.00 0.49 0.49 84 1012.8
20260905223141 87 145 2.0 5.0 0.00 0.49 0.49 83 1012.8
20260905222637 87 157 0.0 5.0 0.00 0.49 0.49 83 1012.6
20260905222131 87 69 0.0 6.0 0.00 0.49 0.49 83 1012.6
20260905221627 87 246 0.0 3.0 0.00 0.49 0.49 85 1012.6
20260905221124 87 173 2.0 5.0 0.00 0.49 0.49 84 1012.8
20260905220619 87 116 2.0 5.0 0.00 0.49 0.49 84 1012.6
20260905220115 87 244 0.0 6.0 0.00 0.49 0.49 84 1012.7
20260905215614 87 171 2.0 8.0 0.00 0.49 0.49 82 1012.7
20260905215110 88 153 3.0 7.0 0.00 0.49 0.49 80 1012.6
20260905214606 88 169 2.0 6.0 0.00 0.49 0.49 80 1012.8